Probability
29 23 13 6 3 0 0 0 0 0 0 0 0 0 0 0 0 0 0 0 0 3 19 42 68 65 68 74 77 84 84 77 71 74 71 71 71 68 68 71 68 68 58 65 58 58 58 61 71
13 13 6 3 0 0 0 0 0 0 0 0 0 0 0 3 0 0 0 0 3 3 13 29 65 71 68 84 84 81 81 84 74 71 77 71 71 71 65 65 65 58 52 55 58 58 58 61 65
16 13 6 3 0 0 0 0 0 0 0 0 0 0 3 3 0 0 0 0 3 3 13 32 58 68 71 77 84 84 81 81 81 77 81 77 74 74 65 55 65 61 52 48 52 58 48 48 58
13 10 3 0 0 0 0 0 0 0 0 0 0 3 3 3 0 0 0 3 3 10 16 35 52 71 71 77 84 81 77 77 74 77 65 68 65 65 58 55 58 61 48 55 52 55 55 55 48
3 0 0 0 0 0 0 0 0 0 3 3 3 3 3 0 0 0 3 3 3 3 16 35 52 68 77 77 81 77 74 74 71 77 74 68 68 71 68 55 55 58 58 48 52 55 52 61 55
3 0 0 0 0 0 0 0 0 0 0 0 3 3 0 0 0 0 0 3 3 6 13 35 45 71 74 74 81 74 74 74 71 68 74 74 71 74 65 55 55 55 55 52 45 52 55 61 58
0 0 0 0 0 0 0 0 0 0 0 0 3 0 0 0 0 0 0 0 3 6 13 23 32 42 52 65 68 74 68 61 68 65 65 68 61 61 65 61 65 55 48 52 42 48 45 55 58
0 0 0 0 0 0 0 0 0 0 0 0 3 0 0 3 0 0 3 3 6 6 10 16 16 26 32 39 55 65 71 61 61 52 55 58 52 48 55 61 68 65 52 48 39 45 52 55 55
3 0 0 0 0 0 0 0 0 0 0 0 0 0 6 6 3 3 3 3 3 3 3 3 6 6 13 19 35 39 45 45 42 39 55 35 16 10 32 32 55 52 52 45 48 55 58 55 48
0 0 0 0 0 0 0 0 0 0 0 3 3 6 6 6 6 3 0 0 3 3 3 3 3 3 6 16 13 16 19 16 16 16 16 13 6 3 10 29 42 52 52 45 45 52 45 29 23
0 0 0 3 0 0 0 0 0 0 0 3 3 6 6 6 6 3 0 0 0 3 3 3 3 3 3 3 6 10 10 10 10 10 10 6 3 3 3 3 10 10 10 6 6 13 13 16 13
0 0 0 0 0 0 0 0 0 0 0 3 3 6 6 6 3 3 3 0 0 0 0 0 3 3 3 3 3 6 6 3 3 6 3 3 3 3 0 0 0 0 0 0 3 0 6 6 6
0 0 0 0 0 0 0 0 0 0 0 3 6 6 6 3 3 3 0 0 0 0 0 0 0 0 0 0 0 3 3 3 3 3 3 3 3 0 0 3 3 3 3 3 0 0 0 0 0
0 0 0 0 0 0 0 0 0 0 3 6 6 6 6 3 3 0 0 0 0 0 0 0 0 0 0 0 0 0 0 0 0 0 0 0 3 0 0 3 0 3 3 0 0 0 0 0 0
0 0 0 0 0 0 0 0 0 0 3 10 10 10 3 3 3 0 0 0 0 0 0 0 0 0 0 0 0 3 0 0 0 0 0 0 0 3 3 3 3 3 3 0 0 0 0 0 0
0 0 0 0 0 0 0 0 0 0 3 3 10 10 6 3 3 0 0 0 0 0 0 0 3 3 0 0 0 3 0 0 0 0 3 3 3 3 3 3 3 3 3 0 3 0 0 0 0
0 0 0 0 0 0 0 0 0 0 3 3 3 13 6 6 3 0 0 0 0 0 0 0 3 3 0 0 0 0 0 3 6 3 3 6 6 6 3 3 3 3 3 0 3 3 0 0 0
0 0 0 0 0 0 0 0 0 0 3 6 6 6 6 6 6 0 0 0 0 0 0 0 3 3 0 0 0 0 3 3 3 3 6 6 6 6 6 3 3 3 3 6 6 3 0 0 3
0 0 0 0 0 0 0 0 3 3 3 6 3 3 3 6 6 3 0 0 0 0 0 0 0 3 0 0 0 0 3 6 0 3 6 10 6 6 10 10 6 3 3 10 6 3 3 6 3
0 0 0 0 0 0 0 0 3 3 3 3 10 6 0 0 3 6 6 3 0 0 0 0 0 0 3 3 0 0 0 6 3 3 6 10 10 13 16 13 10 10 6 10 10 3 3 6 10
0 0 0 0 0 0 0 0 0 0 10 6 6 10 10 6 6 6 6 6 3 0 0 0 0 0 3 3 0 10 6 6 6 6 10 10 6 13 16 13 10 6 10 10 13 10 0 16 10
0 0 0 0 0 0 0 0 0 3 6 3 3 0 0 3 0 6 3 3 3 6 3 0 0 3 3 3 3 10 13 13 13 10 10 10 10 13 13 10 6 10 6 10 10 16 13 6 16
0 0 0 0 0 0 0 0 0 3 6 6 3 3 0 3 6 3 6 6 6 3 3 0 3 3 3 3 6 6 10 13 10 3 6 6 13 13 13 10 10 10 10 10 10 10 10 16 16
0 0 0 0 0 0 0 0 0 0 3 10 6 3 0 0 3 3 3 6 13 6 6 3 6 3 3 10 6 3 6 10 10 10 10 10 16 16 13 6 6 13 6 3 3 3 13 13 10
0 0 0 0 0 0 0 0 0 0 0 6 6 3 0 0 3 3 3 6 6 3 6 3 10 6 10 10 13 13 10 13 13 13 13 13 13 16 16 10 6 6 0 3 3 3 6 10 13
0 0 0 0 0 0 0 0 0 3 6 6 6 0 3 6 6 3 3 3 6 3 3 3 3 10 13 10 13 10 13 13 13 10 13 13 13 13 10 10 16 10 10 10 6 6 10 10 10
0 0 0 0 0 0 0 0 3 6 6 10 3 6 6 6 6 6 6 6 6 6 3 3 6 6 10 10 16 16 16 19 16 13 13 13 10 16 10 13 10 13 6 6 6 16 10 6 6
0 0 0 0 0 0 0 0 3 3 6 13 6 3 3 3 6 6 6 10 13 10 13 10 13 6 13 13 19 26 26 23 23 23 16 13 10 13 13 16 10 13 3 6 6 10 6 10 10
0 0 0 0 0 0 0 0 0 3 3 13 6 3 3 3 6 6 6 6 10 13 10 6 10 13 13 13 19 19 23 19 19 23 26 23 19 19 16 13 16 13 13 13 3 6 3 3 3
0 0 0 0 0 0 0 0 0 0 3 6 3 6 6 3 6 3 3 3 6 3 6 6 10 10 13 10 13 19 6 13 19 19 19 19 23 19 19 13 13 13 19 10 13 6 3 3 6
Height
5882 5882 5882 5883 5884 5883 5882 5881 5881 5881 5881 5881 5881 5881 5881 5881 5882 5883 5881 5879 5878 5878 5877 5876 5876 5876 5875 5875 5875 5875 5875 5875 5875 5875 5875 5875 5875 5875 5875 5874 5875 5874 5874 5875 5875 5875 5876 5876 5876
5884 5884 5885 5885 5884 5884 5884 5883 5883 5883 5883 5882 5882 5882 5882 5882 5882 5882 5880 5880 5879 5878 5878 5877 5877 5876 5876 5876 5876 5875 5875 5875 5875 5875 5876 5875 5875 5876 5876 5875 5875 5875 5875 5876 5876 5876 5876 5877 5877
5885 5886 5887 5887 5886 5886 5885 5884 5884 5884 5884 5884 5884 5883 5883 5883 5883 5882 5882 5881 5880 5879 5879 5878 5878 5877 5877 5876 5876 5876 5876 5876 5875 5876 5876 5876 5876 5876 5876 5876 5876 5876 5877 5877 5877 5877 5877 5877 5877
5888 5889 5889 5889 5887 5887 5886 5886 5885 5885 5886 5885 5885 5885 5884 5884 5884 5883 5883 5882 5881 5881 5880 5879 5878 5878 5877 5877 5877 5877 5876 5876 5876 5876 5876 5876 5877 5877 5876 5877 5877 5877 5877 5878 5878 5878 5878 5878 5878
5890 5891 5891 5889 5889 5888 5888 5887 5887 5887 5887 5887 5886 5886 5886 5886 5885 5885 5884 5883 5882 5881 5881 5880 5879 5878 5878 5878 5878 5878 5877 5877 5877 5877 5877 5877 5877 5877 5877 5877 5878 5878 5878 5878 5879 5879 5878 5879 5879
5893 5892 5892 5890 5890 5890 5889 5889 5888 5888 5888 5888 5888 5888 5887 5887 5886 5886 5885 5884 5883 5882 5881 5881 5880 5879 5879 5879 5879 5878 5878 5878 5878 5878 5878 5878 5878 5878 5878 5878 5878 5878 5879 5879 5879 5879 5879 5879 5879
5895 5894 5892 5892 5892 5891 5891 5890 5890 5890 5890 5890 5889 5889 5889 5888 5888 5887 5886 5885 5884 5883 5882 5882 5881 5880 5880 5880 5879 5879 5879 5879 5878 5878 5878 5878 5878 5879 5879 5879 5879 5879 5879 5879 5879 5879 5879 5879 5879
5896 5897 5895 5894 5894 5893 5893 5892 5892 5892 5891 5891 5891 5891 5890 5890 5889 5888 5887 5886 5885 5884 5883 5883 5882 5882 5881 5881 5880 5880 5879 5879 5879 5879 5879 5879 5879 5879 5879 5879 5879 5879 5879 5879 5880 5880 5880 5880 5880
5898 5899 5897 5897 5896 5895 5894 5894 5894 5894 5893 5893 5892 5892 5892 5891 5890 5889 5888 5887 5886 5885 5884 5884 5883 5883 5882 5882 5881 5881 5881 5880 5880 5879 5879 5879 5879 5879 5879 5880 5879 5879 5879 5879 5880 5880 5880 5880 5880
5900 5900 5900 5899 5898 5897 5896 5896 5896 5896 5896 5895 5894 5894 5893 5892 5892 5891 5890 5889 5888 5887 5886 5885 5884 5883 5883 5883 5882 5882 5881 5881 5880 5880 5880 5880 5879 5880 5880 5880 5879 5879 5879 5880 5880 5880 5880 5880 5879
5902 5902 5902 5901 5900 5900 5899 5898 5898 5898 5898 5897 5897 5896 5895 5894 5893 5892 5891 5890 5889 5888 5887 5886 5885 5884 5884 5883 5883 5882 5882 5881 5881 5881 5880 5880 5880 5880 5880 5880 5880 5879 5880 5880 5880 5880 5880 5880 5879
5905 5904 5903 5903 5902 5901 5901 5901 5900 5900 5900 5900 5899 5898 5897 5896 5895 5894 5892 5891 5890 5889 5888 5887 5886 5885 5885 5884 5883 5883 5882 5882 5881 5881 5881 5880 5880 5880 5880 5880 5880 5880 5880 5880 5880 5880 5880 5880 5879
5906 5906 5905 5905 5904 5903 5903 5903 5902 5902 5902 5901 5900 5899 5898 5897 5896 5895 5894 5892 5891 5890 5889 5888 5887 5886 5886 5885 5884 5883 5883 5882 5882 5881 5881 5880 5880 5880 5880 5880 5880 5880 5880 5880 5880 5880 5880 5880 5879
5908 5908 5907 5906 5906 5905 5905 5905 5905 5904 5904 5903 5902 5901 5900 5898 5897 5896 5895 5893 5892 5891 5890 5888 5887 5887 5886 5885 5885 5884 5883 5883 5882 5881 5881 5880 5880 5879 5879 5879 5880 5880 5880 5880 5880 5880 5880 5879 5879
5909 5909 5909 5908 5908 5908 5908 5908 5907 5906 5905 5904 5903 5902 5901 5900 5899 5897 5896 5895 5893 5892 5891 5889 5888 5887 5887 5886 5885 5885 5884 5883 5882 5882 5881 5880 5880 5879 5879 5879 5879 5879 5879 5879 5880 5879 5879 5879 5879
5911 5911 5911 5910 5910 5910 5911 5910 5909 5908 5907 5906 5905 5904 5903 5902 5900 5899 5898 5896 5895 5893 5892 5890 5889 5889 5888 5887 5886 5885 5885 5884 5883 5882 5881 5880 5880 5879 5879 5879 5879 5879 5879 5879 5879 5879 5879 5879 5878
5913 5912 5912 5912 5911 5911 5911 5910 5910 5910 5909 5908 5906 5905 5904 5903 5902 5901 5899 5898 5896 5894 5893 5892 5891 5890 5889 5888 5887 5886 5885 5884 5883 5882 5881 5880 5880 5879 5879 5879 5879 5879 5879 5879 5879 5879 5878 5878 5877
5913 5913 5913 5913 5912 5912 5912 5911 5911 5910 5910 5909 5908 5907 5906 5905 5903 5902 5901 5899 5897 5896 5895 5894 5893 5891 5890 5889 5888 5887 5886 5885 5883 5882 5881 5880 5880 5879 5879 5878 5878 5878 5878 5878 5878 5878 5877 5877 5876
5914 5914 5914 5914 5913 5913 5913 5912 5912 5911 5910 5909 5909 5907 5907 5906 5904 5903 5902 5900 5899 5897 5896 5895 5894 5893 5891 5890 5889 5888 5886 5885 5884 5882 5881 5880 5880 5879 5878 5877 5877 5877 5877 5877 5877 5876 5876 5876 5875
5914 5915 5915 5915 5914 5914 5913 5913 5913 5912 5911 5910 5909 5908 5907 5906 5905 5904 5903 5901 5900 5898 5897 5896 5895 5894 5892 5891 5890 5888 5887 5886 5884 5882 5881 5880 5879 5878 5877 5877 5876 5876 5875 5875 5875 5875 5875 5874 5874
5915 5915 5915 5915 5915 5914 5914 5914 5913 5913 5912 5911 5910 5909 5908 5907 5906 5905 5903 5902 5900 5899 5898 5897 5895 5894 5893 5891 5890 5888 5887 5886 5884 5883 5881 5880 5879 5878 5877 5876 5875 5875 5874 5874 5874 5874 5873 5873 5872
5915 5915 5915 5915 5915 5915 5915 5914 5914 5913 5912 5912 5911 5910 5909 5907 5906 5905 5904 5902 5901 5899 5898 5897 5896 5894 5893 5891 5890 5889 5887 5885 5884 5882 5881 5879 5878 5877 5876 5875 5874 5873 5873 5873 5872 5872 5871 5871 5871
5914 5915 5915 5915 5915 5915 5914 5914 5915 5913 5913 5912 5911 5910 5909 5908 5906 5905 5904 5903 5901 5900 5898 5897 5896 5895 5893 5892 5890 5889 5887 5885 5884 5882 5880 5879 5877 5876 5875 5874 5873 5872 5872 5871 5871 5870 5870 5870 5869
5914 5914 5914 5914 5914 5915 5914 5914 5914 5913 5912 5912 5911 5909 5908 5907 5906 5905 5904 5902 5901 5900 5898 5897 5896 5895 5893 5892 5890 5889 5887 5885 5883 5882 5880 5878 5877 5875 5874 5872 5871 5871 5870 5870 5869 5869 5868 5868 5868
5913 5914 5914 5914 5914 5914 5914 5913 5914 5913 5912 5911 5910 5909 5908 5907 5906 5905 5904 5902 5901 5900 5898 5897 5896 5894 5893 5891 5890 5888 5886 5885 5883 5881 5879 5877 5876 5874 5873 5871 5870 5870 5869 5868 5868 5867 5867 5866 5866
5911 5913 5914 5914 5913 5914 5913 5912 5914 5912 5911 5910 5909 5908 5907 5907 5905 5904 5903 5902 5900 5899 5898 5896 5895 5894 5892 5890 5889 5887 5885 5883 5882 5880 5878 5876 5874 5873 5871 5870 5869 5868 5867 5866 5866 5865 5865 5864 5863
5910 5911 5912 5912 5911 5912 5912 5912 5912 5911 5910 5909 5909 5908 5907 5906 5905 5904 5903 5901 5899 5898 5897 5895 5894 5892 5891 5889 5888 5886 5884 5882 5880 5878 5877 5875 5873 5871 5870 5868 5867 5866 5865 5864 5863 5863 5862 5862 5861
5908 5909 5909 5909 5909 5909 5910 5910 5911 5910 5909 5908 5907 5907 5906 5905 5904 5903 5902 5900 5899 5897 5895 5894 5893 5891 5889 5888 5886 5884 5882 5881 5879 5877 5875 5873 5871 5870 5868 5866 5865 5864 5863 5862 5861 5860 5859 5859 5858
5905 5906 5906 5907 5907 5907 5907 5910 5908 5908 5907 5907 5906 5905 5904 5903 5903 5901 5900 5899 5897 5895 5894 5892 5890 5889 5887 5886 5884 5882 5880 5879 5877 5875 5873 5871 5869 5867 5865 5864 5863 5861 5860 5859 5858 5857 5857 5856 5855
5901 5902 5903 5904 5904 5904 5905 5908 5905 5905 5905 5904 5904 5903 5902 5901 5900 5899 5898 5897 5895 5893 5891 5889 5888 5886 5884 5883 5881 5879 5877 5875 5873 5872 5870 5868 5866 5864 5863 5861 5859 5858 5857 5856 5855 5854 5854 5853 5852
Wind_Speed
12 12 12 12 13 12 12 12 12 12 12 11 11 11 11 11 10 10 10 10 9 9 8 7 6 6 6 6 7 7 6 6 5 5 5 4 4 4 4 3 4 4 4 4 3 3 3 2 2
12 12 12 12 13 12 13 13 13 12 11 11 10 10 10 11 10 10 10 10 9 8 8 8 8 8 7 6 7 7 6 6 5 5 5 5 4 4 4 3 3 4 4 5 4 3 3 2 2
12 12 13 13 13 13 13 13 13 13 11 10 10 10 10 11 10 10 9 9 9 8 8 8 8 7 7 7 7 6 6 6 6 6 5 5 4 4 3 3 3 4 4 4 5 4 4 3 2
12 13 13 13 13 13 13 13 13 13 11 10 10 10 10 10 10 9 9 9 8 7 8 8 7 7 7 7 7 6 6 6 6 6 6 5 5 4 4 4 4 4 4 4 4 4 3 3 3
13 12 13 13 13 13 13 13 13 13 11 10 10 10 10 10 10 9 9 8 8 7 7 8 7 7 7 7 7 6 6 6 6 6 6 6 5 5 5 5 4 4 4 3 4 3 3 3 3
13 12 13 13 13 12 13 13 13 13 12 10 10 10 9 9 9 9 9 8 8 7 7 7 7 6 7 7 7 6 6 6 5 5 6 5 5 5 4 4 4 4 4 3 3 3 3 2 2
14 13 14 15 14 13 14 14 14 13 12 11 10 10 10 10 10 9 9 8 8 7 7 7 6 6 7 7 7 6 6 6 5 5 5 5 5 5 4 3 3 3 3 3 3 2 2 2 2
13 14 15 15 15 14 15 15 15 14 13 12 11 12 12 11 10 10 9 9 9 8 7 7 7 7 7 6 6 6 6 6 5 4 4 4 4 4 3 2 2 2 2 2 2 1 1 1 1
13 13 14 15 15 15 15 14 14 13 13 12 12 12 12 11 11 11 10 10 9 8 7 7 7 7 7 7 6 6 6 6 5 5 4 3 3 2 2 2 2 2 2 2 2 2 1 1 1
12 12 14 15 15 15 15 15 14 13 12 12 12 12 12 12 12 12 11 10 9 9 8 8 8 8 7 7 6 6 5 5 5 4 5 4 3 2 2 2 2 2 2 1 1 1 1 1 1
12 13 13 13 14 15 15 15 14 13 12 12 12 12 13 12 11 11 11 11 10 9 8 8 8 7 7 7 7 6 5 5 5 4 3 3 3 2 2 1 1 1 1 1 0 1 1 1 1
11 12 12 13 13 14 14 14 14 13 13 12 12 13 12 12 12 11 11 11 11 10 10 9 8 8 7 7 7 6 5 5 5 5 3 2 3 2 1 2 2 2 1 1 0 1 2 2 1
10 11 11 12 12 12 13 13 13 12 12 12 12 13 13 13 12 12 11 11 11 11 11 10 8 8 7 7 6 6 5 4 4 4 4 3 2 2 2 2 1 1 1 1 0 1 2 2 1
10 11 11 11 10 11 12 12 12 12 11 11 12 12 13 13 12 12 12 12 11 11 11 10 8 8 8 7 7 7 6 5 4 4 4 3 2 1 2 2 1 1 1 0 1 1 2 2 2
10 10 11 10 9 10 11 11 10 10 11 11 11 12 12 12 12 11 11 12 12 11 11 10 10 9 9 8 8 7 6 5 5 4 4 3 2 1 0 0 0 1 1 1 1 1 2 2 2
8 8 9 9 8 8 9 10 10 9 9 10 10 11 11 11 11 11 11 11 12 12 11 11 10 10 9 8 8 7 7 6 5 5 5 4 3 1 1 1 1 1 1 1 1 2 3 3 3
6 7 7 7 7 7 8 8 8 8 8 8 8 9 9 10 10 10 10 11 11 11 11 11 10 10 10 9 8 8 7 6 6 5 5 4 3 2 1 1 1 1 2 2 2 2 3 4 4
6 5 4 5 6 6 6 7 6 7 7 7 7 7 8 8 9 10 10 10 10 10 10 10 10 10 10 9 8 8 7 7 6 6 5 5 4 3 3 2 2 2 3 3 3 3 4 4 4
5 3 4 5 5 5 4 4 5 6 6 6 6 6 7 7 7 8 9 10 10 9 9 9 10 10 10 9 9 9 8 8 7 7 6 5 5 5 5 3 2 3 4 4 4 4 5 5 6
3 2 2 3 3 4 3 3 4 5 5 5 5 6 6 6 6 7 9 9 9 9 9 9 9 9 10 9 9 8 8 8 8 8 6 5 6 5 5 4 3 4 4 4 5 5 6 6 6
3 1 1 1 3 2 2 3 3 4 5 5 5 5 5 5 5 6 7 8 9 8 8 8 8 8 9 9 9 9 9 8 8 8 7 7 6 6 6 6 5 5 5 5 5 6 7 6 6
3 2 1 1 2 3 2 3 2 4 5 4 5 5 5 5 5 6 6 7 7 8 8 8 7 8 9 9 9 9 9 9 9 9 8 8 7 7 6 6 5 6 6 6 6 6 6 7 6
4 3 1 1 2 2 3 3 3 3 5 5 5 5 5 5 6 5 6 6 7 8 7 8 8 7 8 9 10 10 10 10 10 10 9 8 7 7 7 7 6 5 6 6 6 6 7 7 7
6 5 4 3 3 3 3 4 3 4 4 5 5 5 5 6 5 5 6 6 6 7 7 7 8 8 8 9 10 10 10 10 10 10 10 9 8 8 7 6 6 6 6 7 7 7 6 7 8
8 7 6 5 4 4 3 4 4 4 5 6 6 5 5 5 5 6 6 6 6 7 8 8 9 9 9 9 10 10 10 10 11 11 10 10 10 9 8 7 6 6 7 8 8 8 8 8 9
10 9 8 7 7 6 5 5 4 5 6 6 6 5 5 5 6 6 7 7 7 7 8 9 10 9 9 10 11 11 11 11 11 11 11 11 10 10 8 8 8 8 8 8 9 9 9 10 11
11 11 10 10 10 10 8 6 5 6 7 6 6 5 6 6 7 7 8 8 8 8 9 9 10 11 11 11 12 12 12 13 12 12 12 12 12 11 10 10 10 10 10 10 10 11 11 11 11
13 12 12 12 12 12 10 9 8 7 7 6 5 6 7 7 7 9 10 10 10 10 11 10 11 11 12 13 12 12 12 13 13 13 13 13 12 12 12 11 11 11 11 11 11 12 12 12 11
14 14 14 14 14 14 13 11 10 9 8 8 8 8 9 9 10 10 11 11 11 12 13 12 12 12 13 14 14 13 14 14 14 15 15 14 14 14 13 13 13 13 12 12 12 12 12 12 12
17 16 15 16 16 16 15 13 12 11 11 11 10 10 10 11 12 12 13 14 14 15 15 14 14 14 15 15 15 15 16 16 16 16 16 16 16 15 15 15 14 14 14 14 13 13 13 13 14
Wind_Direction
91 87 84 82 79 79 77 76 75 71 68 68 65 63 59 57 57 58 58 54 54 53 56 64 66 68 72 68 68 70 69 70 75 77 76 75 79 76 72 81 89 89 84 84 78 69 61 66 76
89 85 85 85 81 79 76 74 72 70 68 67 65 61 57 55 57 58 57 55 51 50 55 60 64 67 68 67 67 69 70 69 78 86 77 76 79 77 76 75 79 79 75 75 69 67 58 65 74
89 84 82 82 80 79 76 74 72 71 68 67 64 62 59 56 56 55 54 52 48 51 59 59 58 61 60 61 63 68 68 67 77 80 79 79 77 73 67 67 78 84 82 71 67 71 60 60 59
81 82 81 82 80 79 76 73 73 71 69 68 65 62 59 56 53 51 50 48 46 51 58 59 56 59 57 56 60 67 70 70 73 78 79 81 77 73 75 77 85 90 91 79 73 68 65 64 59
79 80 80 77 77 76 74 73 72 71 70 71 66 61 60 56 53 51 51 48 52 55 58 58 51 59 60 56 62 70 73 73 68 75 77 80 81 81 80 80 81 89 93 92 75 69 60 66 69
82 83 82 76 74 73 72 70 69 68 69 73 70 64 61 55 50 50 50 46 51 56 55 57 58 58 64 63 64 73 77 74 72 77 78 77 80 77 81 85 85 91 88 86 73 69 55 67 70
84 84 80 78 76 74 71 69 66 66 70 73 71 65 61 54 50 51 54 50 49 55 58 61 61 63 67 65 67 76 73 69 74 80 71 68 70 76 83 87 80 77 85 83 67 64 52 49 58
81 77 78 77 75 73 71 68 67 66 68 69 66 63 59 55 54 54 55 54 54 57 58 58 57 62 62 59 63 65 67 65 66 75 69 68 72 74 81 86 62 67 92 84 72 61 42 39 45
80 75 74 73 74 74 71 67 67 68 70 69 65 63 60 58 55 55 54 53 53 51 54 55 56 59 56 52 54 62 65 66 61 66 64 66 68 72 66 70 72 90 92 80 69 49 37 31 16
83 81 76 73 74 74 72 69 67 71 71 67 61 58 58 57 53 52 51 52 56 55 56 60 59 59 59 54 55 60 63 62 58 58 60 67 76 77 68 63 77 107 117 95 66 32 23 5 347
84 82 77 75 76 74 72 72 70 72 69 65 59 56 56 55 53 51 51 49 52 49 50 55 58 59 61 60 59 60 57 58 53 44 45 54 62 67 74 72 78 97 104 84 8 354 349 346 349
86 84 80 81 78 75 73 74 72 70 69 67 61 57 56 53 52 51 50 52 51 50 49 50 56 56 57 56 55 56 50 46 44 34 32 44 55 63 66 65 67 79 95 126 173 326 343 335 317
89 82 79 81 77 74 74 75 75 71 69 66 62 56 55 54 53 50 50 50 50 48 46 46 50 53 53 50 47 49 45 40 42 34 23 23 44 71 98 105 65 51 103 100 47 313 340 335 317
89 82 81 82 77 76 76 75 75 71 66 60 57 54 53 51 49 48 49 47 46 44 41 41 51 56 54 49 50 50 43 36 32 27 21 17 9 50 105 113 89 121 115 16 308 315 332 333 324
93 88 82 80 77 78 76 74 73 69 62 58 56 56 54 49 46 44 46 44 44 44 42 46 53 55 53 51 51 46 39 33 27 20 14 10 358 347 337 120 123 150 200 274 296 311 310 332 331
100 91 85 79 77 78 78 72 69 66 62 59 57 57 53 46 43 43 44 43 44 44 45 50 54 54 50 46 44 38 33 30 24 19 9 3 0 1 28 357 265 244 263 269 307 304 298 307 310
111 100 87 76 76 81 78 72 67 63 61 57 57 55 48 43 39 39 42 43 44 44 48 52 54 51 45 42 41 37 31 27 24 17 11 10 13 3 331 328 284 261 265 261 284 287 290 298 301
123 112 92 81 80 76 75 70 62 54 50 46 48 48 43 40 37 38 40 43 44 46 51 53 51 48 44 41 37 33 27 23 22 13 11 18 12 359 328 306 290 278 267 270 288 291 289 298 300
137 117 99 83 75 67 65 56 47 41 34 34 38 41 40 39 40 40 39 40 41 44 48 49 48 45 40 37 33 30 25 20 14 9 6 4 1 357 339 332 303 284 275 278 278 280 284 288 289
159 132 100 79 64 60 53 30 19 24 25 23 27 30 30 35 38 36 36 39 37 42 43 41 45 41 34 30 27 24 18 12 8 5 360 355 352 350 349 335 316 302 292 284 281 277 280 278 281
183 176 140 32 28 37 34 28 29 15 9 9 16 25 23 19 25 28 29 34 32 35 37 37 36 33 30 27 23 19 14 7 3 0 355 343 342 339 333 318 303 298 297 294 285 280 278 275 283
205 204 222 328 23 30 12 20 14 6 1 0 5 8 6 7 18 23 21 24 28 27 28 27 25 23 20 17 14 12 9 4 1 354 349 343 335 332 327 318 311 303 296 292 284 282 278 277 276
230 237 252 292 353 359 346 337 344 346 354 354 348 348 347 352 4 18 17 15 19 19 20 22 20 15 12 9 7 4 1 359 357 353 348 342 335 331 323 317 317 308 297 293 285 282 275 277 279
236 246 258 275 309 336 326 316 330 328 335 339 339 336 340 343 352 2 9 9 11 11 13 14 8 7 2 1 360 357 355 353 350 347 343 339 333 327 326 317 309 305 298 291 287 288 281 282 280
241 249 253 262 286 308 306 304 318 316 324 328 335 331 327 336 343 350 353 357 359 358 358 359 355 354 353 351 350 348 346 344 341 336 335 332 331 326 323 315 310 303 299 295 287 285 278 281 281
240 248 252 267 281 285 293 293 307 311 311 318 328 332 329 327 327 333 341 342 343 345 344 344 343 344 343 340 340 337 335 333 332 331 331 328 325 321 319 317 311 305 301 298 292 288 284 283 282
238 242 250 261 271 275 283 285 295 303 304 307 320 325 327 328 326 328 335 334 327 328 330 333 332 331 334 332 332 331 331 331 330 328 328 328 324 319 316 315 312 308 302 299 293 290 291 286 282
245 247 251 259 266 271 277 286 297 297 296 304 312 314 315 321 324 326 327 328 321 323 325 322 323 324 328 329 326 325 326 329 329 326 323 320 319 317 315 308 304 303 302 302 296 292 290 290 288
243 245 252 260 265 270 275 284 290 291 291 297 302 304 308 312 314 315 318 321 322 321 319 316 316 317 319 321 320 319 320 320 319 320 319 318 316 314 311 307 303 299 298 298 298 294 290 288 289
244 246 252 259 264 267 271 278 281 284 285 286 291 295 299 301 305 310 312 313 313 314 314 312 313 313 313 315 314 313 314 313 314 313 311 311 311 310 307 304 304 301 295 293 292 289 287 287 287